Epoch 2000 Feb. 26.0 TT = JDT 2451600.5 T 2000 Feb. 15.80254 TT MPC q 3.1673328 (2000.0) P Q n 0.09880942 Peri. 154.53149 +0.08549632 -0.99514889 a 4.6337984 Node 290.53264 +0.90500234 +0.09799874 e 0.3164716 Incl. 2.97929 +0.41672669 -0.00865680 P 9.97
m1 = 6.0 + 5 logΔ + 16.0 log r(t - 300)